STARLINK-4302, 53481

Orbit data source: Space-Track

STARLINK-4302, 53481 is a payload satellite owned by SpaceX/Seattle (US) in SSO that was launched on Fri, 12 Aug 2022 UTC via an FALCON 9 launch vehicle from the Air Force Western Test Range (AFWTR). Payload-class satellites include a variety of spacecraft equipped with specific instruments for various scientific and technological missions. These include communications satellites like Starlink; space stations such as the ISS; scientific satellites like the Hubble; Earth observation satellites from companies like Planet Labs, Umbra, and HawkEye 360; GPS; miniature CubeSats for education and research; and military/defense satellites.

Loading next visibility...
Identifier
53481, 2022-099S
Orbit
SSO
Country
Flag of USUS
Related business
Manufacturer
SpaceX/Seattle
Mission
Operational Commercial Communications
Bus & Motor
STARLINK, Unknown motor
Mass
300 kg wet, ~275 kg dry
Launch date (UTC)
2022-08-12 (3 years ago)
Launch vehicle
FALCON 9
Launch site
Air Force Western Test Range (AFWTR)
Object type
Payload
Rocket body
Debris
Shape & HBR
Box + 1 Pan, 10.1 m
Radar Cross Section
13.562 m², Large (>1 m²)

Expand to show TLE details & history
Last TLE update: 13 hours ago

TLE from 13 hours ago
0 STARLINK-4302
1 53481U 22099S   25346.85556170  .00002130  00000-0  17026-3 0  9995
2 53481  97.5986 105.1981 0000891  91.3876 268.7450 15.01271428182952
Epoch: 2025-12-12T20:32Z
TLE epoch observation values (Epoch: 2025-12-12T20:32:00.530Z)
Latitude
-0.0001°
Longitude
75.40471°
Altitude
566.048 km
Speed
7.578 km/s
True Right ascension
07h 00m 47s
True Declination
0° 00' 00"
Sunlit
Object was in full shadow at epoch
Visualization orbit readout
Latitude
Unknown
Longitude
Unknown
Altitude
Unknown
Speed
Unknown
Apparent Right ascension
Unknown
Apparent Declination
Unknown
Sunlit
N/A
Visualization observer readout
Local Sidereal Time
07:32:41
Azimuth
Unknown
Elevation
Unknown
Doppler factor
Unknown
Orbital elements
Apogee altitude
560.592 km
Perigee altitude
559.356 km
Semi-major axis
6,938.111 km
Eccentricity
0.00009
Inclination
97.5986°
RAAN
105.1981°
Arg. of periapsis
91.3876°
True anomaly
268.73479°
Mean anomaly
268.745°
Eccentric anomaly
268.7399°
Mean motion
3.75562 °/min
Orbital period
95.86 mins
BSTAR
0.00017026
Loading maneuver chart data...
Computing Atmospheric mass density...
Loading historical data...
Loading historical data...
Loading historical data...
Loading historical data...
Loading historical data...
Loading historical data...
Loading historical data...

Documentation

Showing up to 5 results
|